Location: Unspecified
(0.0000°N, 0.0000°E)
Time: 11:08:05
(UTC+00:00)

ISS - Pass Details

Date: 23 March 2019
Orbit: 408 x 411 km, 51.6° (Epoch: 24 March)

Event Time Altitude Azimuth Distance (km) Brightness Sun altitude
Exits shadow 04:28:13 27° 132° (SE) 823 -1.9 -24.6°
Drops below altitude 10° 04:29:52 10° 138° (SE) 1,467 -0.5 -24.2°
Sets 04:31:57 0° 141° (SE) 2,330 0.6 -23.7°
